NIMBUS 2 DEB, 40645

Orbit data source: Space-Track

NIMBUS 2 DEB, 40645 is space debris in SSO originally from a launch on Sun, 15 May 1966 UTC launched from the Air Force Western Test Range (AFWTR). Debris objects in space refer to the collection of defunct objects orbiting the Earth. Examples of debris include non-operational satellites, rocket bodies, and fragments generated from explosions, collisions, or faulty payload assembly.

Loading next visibility...
Identifier
40645, 1966-040BJ
Orbit
SSO
Country
Flag of USUS
Related business
Manufacturer
Unknown
Mission
Spacecraft
Bus & Motor
Unknown
Mass
Unknown
Launch date (UTC)
1966-05-15 (60 years ago)
Launch vehicle
Unknown
Launch site
Air Force Western Test Range (AFWTR)
Object type
Payload
Rocket body
Debris
Shape & HBR
Unknown shape, 0.1 m
Radar Cross Section
Small (<0.1 m²)

Expand to show TLE details & history
Last TLE update: 2 days ago

TLE from 2 days ago
0 NIMBUS 2 DEB
1 40645U 66040BJ  26171.41617241 -.00000576  00000-0 -89131-3 0  9993
2 40645 100.4145  52.2564 0039460 175.9392 184.2064 13.45172008543343
Epoch: 2026-06-20T09:59Z
TLE epoch observation values (Epoch: 2026-06-20T09:59:17.296Z)
Latitude
-0.00005°
Longitude
-6.19677°
Altitude
1,122.224 km
Speed
7.277 km/s
True Right ascension
03h 29m 01s
True Declination
0° 00' 00"
Sunlit
Object was in daylight at epoch
Visualization orbit readout
Latitude
Unknown
Longitude
Unknown
Altitude
Unknown
Speed
Unknown
Apparent Right ascension
Unknown
Apparent Declination
Unknown
Sunlit
N/A
Visualization observer readout
Local Sidereal Time
21:38:57
Azimuth
Unknown
Elevation
Unknown
Doppler factor
Unknown
Orbital elements
Apogee altitude
1,116.88 km
Perigee altitude
1,057.961 km
Semi-major axis
7,465.558 km
Eccentricity
0.00395
Inclination
100.4145°
RAAN
52.2564°
Arg. of periapsis
175.9392°
True anomaly
184.1734°
Mean anomaly
184.2064°
Eccentric anomaly
184.18988°
Mean motion
3.36473 °/min
Orbital period
106.99 mins
BSTAR
-0.00089131
Loading maneuver chart data...
Computing Atmospheric mass density...
Loading historical data...
Loading historical data...
Loading historical data...
Loading historical data...
Loading historical data...
Loading historical data...
Loading historical data...

Documentation

Showing up to 5 results
|